Location: Hurstbourne Priors
(51.2000°N, 1.3667°W)
Time: 19:12:22
(UTC+00:00)

Transit 4A - Pass Details

Date: 22 April 2021
Orbit: 870 x 974 km, 66.8° (Epoch: 09 May)

Event Time Altitude Azimuth Distance (km) Brightness Sun altitude
Rises 06:36:47 0° 321° (NW) 3,537 10.6 14.7°
Reaches altitude 10° 06:39:24 10° 327° (NNW) 2,579 10.0 15.1°
Maximum altitude 06:45:14 54° 44° (NE) 1,064 8.9 16.0°
Drops below altitude 10° 06:50:56 10° 122° (ESE) 2,521 11.4 16.9°
Sets 06:53:27 0° 127° (SE) 3,452 11.8 17.3°
